[[{"header":{"parameterUnit":"m.s-1","parameterCategory":1,"la1":30.2991,"la2":30.254,"lo1":-89.0895,"lo2":-89.0444,"dy":0.0017,"dx":0.0017,"nx":28,"ny":28,"refTime":"2025-03-11T09:00:00:Z","depth":0,"parameterNumber":2,"parameterNumberName":"U-component_of_WINDS"},"data":[0,0,0,0,0,0,0,0,0,0,0,0,0,0,0,0,0,0,0,0,0,0,0,0,0,0,0,0,0,0,0,0,0,0,0,0,0,0,0,0,0,0,0,0,0,0,0,0,0,0,0,0,0,0,0,0,0,0,0.8886,0.8887,0,0.9006,0.9007,0.9008,0.9066,0.9066,0.9066,0.9066,0.919,0.9193,0.9197,0,0,0,0,0,0,0,0,0,0,0,0,0,0.8708,0.8711,0.8885,0.8887,0.8888,0.9005,0.9007,0.9009,0.9066,0.9066,0.9066,0.9066,0.9189,0.9193,0.9197,0,0,0,0,0,0,0,0,0,0,0,0,0,0.8802,0.8712,0.8885,0.8931,0.8936,0.9005,0.9007,0.9009,0.9066,0.9066,0.9066,0.9066,0.9188,0.9193,0.9198,0.923,0,0,0.9213,0.9215,0,0,0,0,0,0,0,0,0.8797,0.8808,0.8923,0.8928,0.8934,0.9021,0.899,0.9083,0.9066,0.9017,0.9066,0.9066,0.9134,0.9143,0.9166,0.9236,0.9241,0.9213,0.9216,0.9219,0.922,0,0,0,0,0,0,0,0.879,0.8804,0.8933,0.8924,0.8931,0.8946,0.896,0.9008,0.9074,0.9021,0.9026,0.9039,0.9137,0.9161,0.9169,0.9243,0.9213,0.9218,0.9221,0.9223,0.9347,0.9347,0,0,0,0,0,0,0.8776,0.8798,0.8929,0.8937,0.8864,0.895,0.8965,0.8993,0.9074,0.9086,0.9039,0.9041,0.9153,0.9164,0.9174,0.9218,0.9219,0.9223,0.9226,0.9346,0.9347,0.9347,0,0,0,0,0,0,0.8772,0.8787,0.8924,0.8869,0.8887,0.8953,0.8984,0.8995,0.902,0.9087,0.91,0.9051,0.9153,0.9167,0.9216,0.9223,0.9226,0.923,0.9346,0.9346,0.9347,0.9306,0,0,0,0,0,0,0.8766,0.8785,0.8798,0.8868,0.889,0.8963,0.8985,0.8998,0.9028,0.9032,0.9102,0.9114,0.9154,0.9208,0.9221,0.923,0.9234,0.9346,0.9346,0.9347,0.9307,0.9305,0.9303,0,0,0,0,0,0.876,0.8781,0.8798,0.8813,0.8907,0.8964,0.8976,0.9022,0.9028,0.9042,0.9085,0.9112,0.922,0.9213,0.9227,0.9238,0.9345,0.9346,0.9347,0.9308,0.9305,0.9303,0,0,0,0,0,0,0.871,0.8791,0.8811,0.8856,0.8902,0.8973,0.8992,0.9017,0.9063,0.9065,0.912,0.9136,0.918,0.9214,0.9204,0.9275,0.9285,0.9289,0.9251,0.9249,0.9247,0.9238,0.9238,0,0,0,0,0,0.8704,0.8743,0.8812,0.8845,0.8868,0.8925,0.8952,0.8983,0.9034,0.9054,0.9101,0.915,0.9195,0.9224,0.9269,0.9312,0.9329,0.9327,0.9325,0.9323,0.9326,0.9352,0.9352,0.9349,0.9349,0.9349,0,0,0.8693,0.8742,0.8763,0.8837,0.8877,0.8916,0.8942,0.8983,0.9013,0.906,0.9109,0.9146,0.9204,0.925,0.9273,0.928,0.933,0.9324,0.9322,0.9326,0.9353,0.9353,0.9353,0.9349,0.9349,0.9349,0,0,0.8692,0.8733,0.8766,0.8805,0.8865,0.8903,0.8911,0.8978,0.9004,0.9054,0.9091,0.9128,0.9204,0.9245,0.9275,0.929,0.9316,0.9304,0.9294,0.9319,0.9319,0.932,0.9326,0.9328,0.9306,0.9306,0.9306,0,0.8671,0.8732,0.8779,0.8818,0.885,0.8894,0.8928,0.8964,0.9036,0.9057,0.9064,0.9161,0.9203,0.926,0.9264,0.9286,0.9298,0.9296,0.9315,0.9316,0.9317,0.9324,0.9326,0.9304,0.9304,0.9304,0.9305,0,0.8703,0.8744,0.8763,0.8831,0.8865,0.8901,0.8955,0.8983,0.9011,0.9049,0.91,0.9152,0.9209,0.9225,0.9253,0.9286,0.9289,0.9304,0.9317,0.9315,0.9322,0.9325,0.9301,0.9302,0.9302,0.9303,0,0,0.8674,0.8768,0.8774,0.8806,0.8876,0.8909,0.8948,0.9003,0.9027,0.9075,0.9109,0.9173,0.9189,0.9223,0.9256,0.9278,0.9288,0.9292,0.9294,0.929,0.9329,0.9317,0.9319,0.9305,0.9306,0.9306,0.9324,0,0.8684,0.8755,0.8799,0.8852,0.8892,0.8935,0.8968,0.9015,0.9051,0.9091,0.9132,0.9176,0.9193,0.9214,0.9237,0.9281,0.9296,0.9281,0.9339,0.934,0.9323,0.9323,0.931,0.9324,0.9327,0.9328,0.9328,0,0.8705,0.8752,0.8809,0.8875,0.8893,0.8922,0.8977,0.9014,0.9068,0.9094,0.9132,0.9165,0.9209,0.9216,0.9277,0.9266,0.9292,0.9317,0.9319,0.9327,0.9334,0.9331,0.933,0.9332,0.9333,0.9332,0.9332,0,0.868,0.8757,0.8801,0.8827,0.8905,0.8925,0.8958,0.9012,0.9043,0.9091,0.9112,0.9164,0.9193,0.9233,0.928,0.9282,0.9337,0.9348,0.936,0.9359,0.937,0.9369,0.9374,0.9385,0.9385,0.9385,0.9385,0,0.8686,0.872,0.8791,0.8818,0.8857,0.8908,0.8945,0.8983,0.903,0.9066,0.9107,0.9139,0.9199,0.924,0.9277,0.9322,0.9335,0.9357,0.9366,0.9354,0.9351,0.9372,0.9373,0.9386,0.9386,0.9386,0.9386,0,0.8665,0.8714,0.8765,0.8834,0.8853,0.8878,0.8938,0.8967,0.9006,0.9051,0.9064,0.9125,0.9175,0.9225,0.9293,0.9318,0.9363,0.9375,0.9344,0.935,0.9359,0.9357,0.9378,0.9384,0.939,0.939,0.939,0,0.8666,0.8693,0.8765,0.8792,0.8824,0.8867,0.8899,0.895,0.8981,0.9045,0.9066,0.9119,0.9164,0.9242,0.9293,0.9345,0.936,0.9363,0.9368,0.9354,0.9361,0.9359,0.9362,0.9361,0.9361,0.9361,0.9361,0,0.8664,0.8687,0.8731,0.8783,0.882,0.8864,0.8909,0.8929,0.8989,0.9023,0.9074,0.9109,0.9178,0.923,0.9288,0.9324,0.9353,0.9359,0.9364,0.9352,0.9333,0.9345,0.934,0.9358,0.9358,0.9359,0.9359,0.9359,0.8654,0.868,0.8736,0.8784,0.8823,0.8865,0.8895,0.8938,0.8981,0.9041,0.9069,0.9121,0.9176,0.9256,0.9291,0.9333,0.9341,0.9349,0.9351,0.9352,0.935,0.9326,0.9344,0.9344,0.9344,0.9344,0.9344,0,0.8655,0.8692,0.8736,0.8798,0.8836,0.886,0.8911,0.8942,0.8987,0.9035,0.9078,0.9138,0.9189,0.9244,0.9298,0.9321,0.9336,0.9334,0.9333,0.9341,0.9339,0.9329,0.9321,0.9321,0.9321,0.9321,0.9321,0.9321,0.8659,0.8705,0.8735,0.8801,0.8839,0.889,0.8917,0.8957,0.8995,0.906,0.9102,0.9138,0.9189,0.9248,0.9296,0.9311,0.933,0.9324,0.9343,0.934,0.9341,0.9343,0.9334,0.9327,0.9327,0.9342,0.9342,0.9342]},{"header":{"parameterUnit":"m.s-1","parameterCategory":1,"la1":30.2991,"la2":30.254,"lo1":-89.0895,"lo2":-89.0444,"dy":0.0017,"dx":0.0017,"nx":28,"ny":28,"refTime":"2025-03-11T09:00:00:Z","depth":0,"parameterNumber":3,"parameterNumberName":"V-component_of_WINDS"},"data":[0,0,0,0,0,0,0,0,0,0,0,0,0,0,0,0,0,0,0,0,0,0,0,0,0,0,0,0,0,0,0,0,0,0,0,0,0,0,0,0,0,0,0,0,0,0,0,0,0,0,0,0,0,0,0,0,0,0,4.2661,4.2662,0,4.2772,4.2773,4.2774,4.2806,4.2806,4.2805,4.2804,4.2911,4.2915,4.2918,0,0,0,0,0,0,0,0,0,0,0,0,0,4.2469,4.2473,4.2661,4.2662,4.2664,4.2772,4.2773,4.2775,4.2806,4.2806,4.2805,4.2804,4.291,4.2914,4.2918,0,0,0,0,0,0,0,0,0,0,0,0,0,4.2563,4.2474,4.266,4.2693,4.2697,4.2771,4.2773,4.2775,4.2806,4.2806,4.2805,4.2804,4.2909,4.2914,4.2919,4.2968,0,0,4.2934,4.2937,0,0,0,0,0,0,0,0,4.2558,4.257,4.2686,4.269,4.2695,4.2774,4.2745,4.2839,4.2807,4.2764,4.2804,4.2803,4.2866,4.2875,4.2897,4.2973,4.2977,4.2935,4.2938,4.294,4.2942,0,0,0,0,0,0,0,4.2551,4.2566,4.2704,4.2688,4.2693,4.2699,4.2711,4.2763,4.2819,4.2768,4.2771,4.2784,4.2868,4.2892,4.29,4.2979,4.2935,4.2939,4.2942,4.2944,4.31,4.3101,0,0,0,0,0,0,4.254,4.256,4.2701,4.2708,4.2623,4.2703,4.2717,4.275,4.2818,4.2828,4.2784,4.2785,4.2884,4.2894,4.2904,4.2966,4.294,4.2945,4.2948,4.3099,4.31,4.3101,0,0,0,0,0,0,4.2536,4.2553,4.2696,4.2635,4.2654,4.2708,4.2744,4.2752,4.2777,4.2831,4.284,4.2799,4.2884,4.2897,4.2952,4.297,4.2947,4.2952,4.3097,4.3099,4.31,4.3091,0,0,0,0,0,0,4.253,4.2551,4.2572,4.2635,4.2657,4.2745,4.2745,4.2755,4.2786,4.2788,4.2847,4.2856,4.2884,4.2944,4.2957,4.2977,4.2956,4.3096,4.3098,4.31,4.309,4.3092,4.3093,0,0,0,0,0,4.2524,4.2563,4.2573,4.259,4.2684,4.2746,4.2758,4.2792,4.2787,4.2808,4.2842,4.2854,4.2966,4.295,4.2964,4.2986,4.3095,4.3097,4.31,4.3089,4.3091,4.3093,0,0,0,0,0,0,4.2498,4.2572,4.2584,4.2645,4.2689,4.2751,4.2778,4.2793,4.2838,4.2837,4.2875,4.2888,4.2941,4.2968,4.2949,4.3036,4.303,4.3036,4.3017,4.302,4.3022,4.3014,4.296,0,0,0,0,0,4.25,4.2547,4.2607,4.2656,4.2678,4.2724,4.2752,4.2774,4.2821,4.2839,4.2877,4.292,4.2965,4.2993,4.3038,4.3093,4.3106,4.3115,4.3117,4.3118,4.3123,4.3154,4.3158,4.3109,4.3109,4.3109,0,0,4.2504,4.255,4.2577,4.2652,4.2689,4.2734,4.274,4.2787,4.282,4.2845,4.2901,4.293,4.298,4.3036,4.3062,4.3061,4.3139,4.3121,4.3122,4.3126,4.3157,4.3161,4.3166,4.3111,4.311,4.311,0,0,4.2535,4.2574,4.262,4.2657,4.2713,4.2744,4.2754,4.2814,4.2836,4.2893,4.2912,4.2951,4.3027,4.3062,4.309,4.3133,4.3145,4.3146,4.3156,4.3186,4.319,4.3194,4.321,4.3215,4.315,4.315,4.315,0,4.2532,4.2604,4.264,4.2688,4.272,4.2746,4.2791,4.2824,4.2891,4.2911,4.2909,4.3006,4.3041,4.3105,4.3116,4.3137,4.3149,4.314,4.3187,4.3191,4.3195,4.321,4.3216,4.315,4.315,4.315,4.315,0,4.2598,4.2647,4.2676,4.2743,4.2778,4.2823,4.2865,4.2895,4.2913,4.2943,4.3,4.3043,4.3097,4.3113,4.313,4.318,4.3177,4.318,4.3175,4.3199,4.3214,4.322,4.3149,4.3149,4.3149,4.3149,0,0,4.2617,4.2704,4.2714,4.2745,4.2809,4.2846,4.2891,4.2946,4.2972,4.3016,4.3055,4.3118,4.3122,4.3153,4.3174,4.32,4.3232,4.3201,4.3202,4.3206,4.3289,4.3287,4.3294,4.324,4.3241,4.3242,4.3285,0,4.2657,4.2744,4.2777,4.2846,4.2892,4.2916,4.2956,4.2998,4.3027,4.3067,4.3097,4.3143,4.3144,4.3163,4.319,4.3223,4.325,4.322,4.3275,4.3277,4.3264,4.3302,4.33,4.3339,4.3291,4.3292,4.3293,0,4.2716,4.2764,4.2838,4.2897,4.2917,4.2952,4.3005,4.3044,4.3091,4.311,4.3145,4.3164,4.3211,4.3202,4.3266,4.3245,4.3269,4.3288,4.329,4.3298,4.3287,4.3311,4.3352,4.3358,4.3302,4.3302,4.3301,0,4.2724,4.2806,4.2862,4.2887,4.2956,4.2981,4.301,4.3057,4.3087,4.3132,4.3152,4.32,4.3227,4.3263,4.3294,4.3284,4.3355,4.3348,4.3371,4.337,4.3386,4.3385,4.3433,4.3399,4.3399,4.3399,4.3399,0,4.2766,4.2811,4.2867,4.2901,4.2951,4.2988,4.3036,4.3066,4.3107,4.3146,4.3169,4.3204,4.3243,4.3283,4.3307,4.3356,4.3368,4.3383,4.3389,4.3382,4.338,4.34,4.3398,4.3401,4.34,4.34,4.34,0,4.2785,4.2824,4.2887,4.2947,4.2963,4.2998,4.3048,4.3081,4.311,4.3159,4.3173,4.3218,4.3266,4.33,4.3361,4.3377,4.3431,4.3436,4.3416,4.3419,4.344,4.3438,4.3503,4.3513,4.3472,4.3472,4.3472,0,4.281,4.2845,4.291,4.2939,4.2969,4.3015,4.3047,4.3083,4.3115,4.3171,4.3197,4.3247,4.3289,4.3364,4.3401,4.3447,4.3454,4.3474,4.3461,4.3453,4.3456,4.3454,4.3458,4.3476,4.3476,4.3476,4.3477,0,4.2851,4.2868,4.2915,4.2968,4.3006,4.3048,4.3091,4.3113,4.3156,4.319,4.3241,4.3273,4.3336,4.3385,4.3435,4.3463,4.3477,4.348,4.3488,4.3482,4.3469,4.3477,4.3422,4.3479,4.3478,4.3478,4.3478,4.3478,4.2874,4.2907,4.2958,4.3009,4.3045,4.3084,4.3119,4.3153,4.3197,4.3253,4.327,4.3322,4.3367,4.3436,4.3464,4.3504,4.3503,4.3514,4.3517,4.352,4.352,4.3461,4.3513,4.3513,4.3513,4.3513,4.3513,0,4.2917,4.2951,4.2998,4.3058,4.3097,4.3108,4.3156,4.3187,4.3234,4.3276,4.3317,4.3374,4.3422,4.3462,4.351,4.3534,4.3542,4.3546,4.3545,4.3551,4.3518,4.3507,4.3539,4.3539,4.3539,4.3539,4.3539,4.3539,4.2945,4.3001,4.3024,4.3098,4.3131,4.3185,4.3211,4.3246,4.328,4.3344,4.3385,4.3411,4.3452,4.3503,4.3546,4.3557,4.3574,4.3577,4.3589,4.3557,4.3554,4.3551,4.3541,4.358,4.358,4.3619,4.362,4.362]}]]